Regional Weather Roundup
Issued by NWS Newport/Morehead, NC

Home | Current Version | Previous Version | Text Only | Print | Product List | Glossary On
Versions: 1 2 3 4 5 6 7 8 9 10 11 12 13 14 15 16 17 18 19 20 21 22 23 24 25 26 27 28 29 30 31 32 33 34 35 36 37 38 39 40 41 42 43 44 45 46 47 48 49 50
000
ASUS42 KMHX 262325
RWRMHX
WEATHER ROUNDUP FOR EASTERN NORTH CAROLINA
NATIONAL WEATHER SERVICE NEWPORT/MOREHEAD CITY NC
700 PM EDT SUN MAR 26 2017

NOTE: "FAIR" INDICATES FEW OR NO CLOUDS BELOW 12,000 FEET
WITH NO SIGNIFICANT WEATHER AND/OR OBSTRUCTIONS TO VISIBILITY

NCZ015>017-031-032-045>047-102-103-270000-
NORTH COAST

CITY           SKY/WX    TMP DP  RH WIND       PRES   REMARKS
EDENTON        CLEAR     70  55  57 S9        30.19S
ELIZABETH CITY PTCLDY    62  53  72 E10       30.20S
KITTY HAWK     NOT AVBL
MANTEO         PTCLDY    64  54  69 SE6       30.23R

$$

NCZ045>047-081-094-103-104-270000-
CENTRAL COAST

CITY           SKY/WX    TMP DP  RH WIND       PRES   REMARKS
FRISCO         PTCLDY    69  57  65 SE6       30.22R HAZE

$$

NCZ095-097-098-100-101-270000-
SOUTHERN COAST

CITY           SKY/WX    TMP DP  RH WIND       PRES   REMARKS
BEAUFORT       CLOUDY    69  59  70 SE6       30.21R
CEDAR ISLAND   NOT AVBL
JACKSONVILLE   CLEAR     69  56  62 S10       30.18S
PINEY ISLAND   PTCLDY   N/A N/A N/A S6        30.21R
WILMINGTON     PTCLDY    70  54  56 SE9       30.18S


$$

NCZ011>013-027>030-043-044-078>080-089-090>093-098-270000-
COASTAL PLAIN

CITY           SKY/WX    TMP DP  RH WIND       PRES   REMARKS
AHOSKIE          N/A     69  54  57 SE8       30.17S
CLINTON        CLEAR     72  56  58 SE6       30.15S
ELIZABETHTOWN  CLEAR     72  55  55 S9G16     30.15S
GOLDSBORO      CLEAR     72  53  49 S3        30.14S
GREENVILLE     CLEAR     73  50  43 S13       30.17S
HAVELOCK       NOT AVBL
KENANSVILLE    MOCLDY    72  54  53 S5        30.17R
KINSTON        PTCLDY    72  50  46 S8        30.17R
NEW BERN       CLEAR     70  54  56 S7        30.20R
RICHLANDS      PTCLDY    70  54  56 SE12      30.18S
ROCKY MOUNT    MOCLDY    72  53  51 S7        30.15S
WASHINGTON     CLEAR     70  55  58 E14       30.18S
WHITEVILLE     CLEAR     71  55  56 SE9       30.16R

$$

AMZ130-135-150-152-154-156-158-170-250-252-270-ANZ085-086-088-633-658-670-270000-
MARINE OBSERVATIONS

STATION/POSITION TIME  TEMP    WIND        PRES    WAVE   SWELL
                       AIR SEA DIR/SP/G            HT/PER HT/PER
                 (UTC) (F)     (DEG/KT/KT) (MB)    (FT/S) (FT/S)
CHESAPEAKE LIGHT NOT AVBL
64 E VA BEACH    2250   56 51  110/  8/  8 1023.5    3/ 6   3/ 6
DUCK             2300   54 47  140/ 10/ 10 1022.7
2 E DUCK         2300      52                N/A     2/18
OREGON INLET     2300   59 60   90/  7/  9 1023.4
13E OREGON INLT  2248      53                N/A     2/ 9   2/ 9
HATTERAS CG      2300   67 60  150/  5/  6 1023.1
DIAMOND BUOY     2250   70 76  150/  8/ 12 1023.3    3/ 8   3/ 8
CAPE LOOKOUT     2300   66     160/  6/  6 1022.8
BEAUFORT LAB     2300   67 57  140/  6/  8 1022.1
30 SE NEW RVR IN 2308   67     130/  6/  6 1022.8
30 SE NEW RVR IN 2313      66                N/A     3/ 9
27 SE WRIGHTSVLE 2308   67 65  180/  4/  8 1021.9
5 SE WRIGHTSVLE  2308   64 62  150/  8/ 10 1021.8
225 S CAPE HAT   2250   68 72   70/ 12/ 16 1022.8    5/ 9   3/ 9
41 SE CHARLESTON 2250   72 74  160/ 10/ 14 1020.7    4/ 9   3/ 9

$$




USA.gov is the U.S. government's official web portal to all federal, state and local government web resources and services.